METEOSAT 5 (MOP 2) 1 21140U 91015B 08129.38641651 -.00000015 00000-0 10000-3 0 3139 2 21140 10.0141 53.3017 0004544 142.0866 217.8248 0.98450529 65094 METEOSAT 6 1 22912U 93073B 08129.01655784 -.00000021 00000-0 10000-3 0 5022 2 22912 7.4093 64.6114 0000263 334.3213 260.5189 1.00271840 51407 GMS 5 1 23522U 95011B 08129.10795631 -.00000242 00000-0 10000-3 0 7566 2 23522 6.5353 67.5592 0007258 319.3638 40.4177 0.99410334 47914 GOES 10 1 24786U 97019A 08128.36070159 -.00000284 00000-0 10000-3 0 3828 2 24786 2.6122 79.8160 0001979 345.0670 230.8979 1.00272782 40432 ORBVIEW 2 (SEASTAR) 1 24883U 97037A 08129.37306894 .00000046 00000-0 19569-4 0 2976 2 24883 98.2997 245.7896 0002354 44.8043 315.3349 14.59939108573371 METEOSAT-7 1 24932U 97049B 08128.96951301 .00000065 00000-0 10000-3 0 3698 2 24932 4.1904 74.5227 0000773 227.8873 330.2649 1.00265013 39121 NOAA 15 1 25338U 98030A 08129.39663383 -.00000097 00000-0 -23250-4 0 4553 2 25338 98.5527 122.2704 0011051 152.5847 207.5933 14.24698557519136 GOES 11 1 26352U 00022A 08128.61444374 .00000087 00000-0 10000-3 0 7968 2 26352 0.3423 86.9505 0001752 166.8029 58.4721 1.00260099 29333 FENGYUN 2B 1 26382U 00032A 08126.47467578 .00000156 00000-0 10000-3 0 471 2 26382 3.3131 77.5720 0003831 181.6517 178.2011 1.00076945 28783 NOAA 16 1 26536U 00055A 08129.39709740 -.00000130 00000-0 -44872-4 0 9222 2 26536 99.1548 117.7052 0010231 342.8580 17.2276 14.12477902393153 GOES 12 1 26871U 01031A 08128.44808458 -.00000252 00000-0 00000+0 0 5433 2 26871 0.1181 258.4616 0004821 167.1239 246.9799 1.00279194 24930 FENGYUN 1D 1 27431U 02024B 08129.38557503 -.00000289 00000-0 -14236-3 0 947 2 27431 98.6013 130.6335 0015885 120.0795 240.1957 14.09268012307795 NOAA 17 1 27453U 02032A 08129.42242415 .00000238 00000-0 12229-3 0 9163 2 27453 98.5363 195.1952 0011110 219.9695 140.0683 14.23972035305145 METEOSAT-8 1 27509U 02040B 08128.85756170 .00000061 00000-0 10000-3 0 7413 2 27509 0.4968 23.1179 0001603 5.6214 155.5674 1.00265039 20936 METSAT 1 1 27525U 02043A 08129.60989307 -.00000083 00000-0 10000-3 0 3914 2 27525 0.1145 86.9265 0002318 249.9646 183.5425 1.00273605 20749 INSAT 3A 1 27714U 03013A 08129.75449580 -.00000263 00000-0 10000-3 0 784 2 27714 0.0591 94.1793 0003787 237.2272 260.6416 1.00268874 18641 FENGYUN 2C 1 28451U 04042A 08129.74392525 -.00000335 00000-0 00000+0 0 9729 2 28451 0.3782 75.9344 0002971 48.9311 114.2946 1.00273081 12999 HIMAWARI 6 1 28622U 05006A 08129.59807873 -.00000286 00000-0 10000-3 0 6064 2 28622 0.0755 65.7932 0001017 102.8733 53.4092 1.00266680 11693 NOAA 18 1 28654U 05018A 08129.41817828 -.00000205 00000-0 -89236-4 0 4185 2 28654 98.8666 70.8416 0015395 67.6019 292.6784 14.11158470152860 METEOSAT-9 1 28912U 05049B 08125.12613524 .00000014 00000-0 00000+0 0 3730 2 28912 0.6151 239.9727 0001817 198.8281 189.8059 1.00280454 8743 MTSAT-2 1 28937U 06004A 08128.65160035 -.00000245 00000-0 10000-3 0 4074 2 28937 0.0117 352.3544 0003357 29.3213 223.7105 1.00267852 8160 FORMOSAT 3A 1 29047U 06011A 08128.50023916 .00000236 00000-0 11212-3 0 6667 2 29047 71.9786 126.9220 0050936 123.4235 237.1769 14.27064128109850 FORMOSAT 3B 1 29048U 06011B 08129.02306017 .00000389 00000-0 17471-3 0 7014 2 29048 71.9718 41.7893 0043948 70.6509 289.9367 14.27049026112402 FORMOSAT 3C 1 29049U 06011C 08129.39197282 .00000361 00000-0 16364-3 0 6397 2 29049 72.0220 187.8148 0035389 138.2244 222.1583 14.27057463108234 FORMOSAT 3D 1 29050U 06011D 08129.23696184 .00001093 00000-0 26646-3 0 9173 2 29050 72.0107 43.8047 0051492 52.1489 308.4208 14.53870457112385 FORMOSAT 3E 1 29051U 06011E 08130.19408268 .00000372 00000-0 16522-3 0 7039 2 29051 72.0060 95.8997 0069255 1.2304 358.8983 14.27054807110934 FORMOSAT 3F 1 29052U 06011F 08130.03226881 .00000359 00000-0 16273-3 0 7209 2 29052 72.0345 156.9043 0040389 107.1836 253.3701 14.27064098109214 GOES 13 1 29155U 06018A 08129.45869381 -.00000093 00000-0 10000-3 0 4139 2 29155 0.2172 81.7408 0001042 246.1115 318.7461 1.00272252 7199 METOP-A 1 29499U 06044A 08129.72835508 -.00000224 00000-0 -82543-4 0 4918 2 29499 98.7248 189.2571 0001005 102.0368 258.0922 14.21475294 80557 FENGYUN 2D 1 29640U 06053A 08128.76498429 -.00000202 00000-0 10000-3 0 3693 2 29640 1.3016 262.8558 0000432 185.4120 139.8547 1.00272919 5238